Location: Bühlhof
(48.7849°N, 8.6361°E)
Time: 19:51:00
(UTC+00:00)

Cosmos 1697 Rocket - Pass Details

Date: 19 January 2026
Orbit: 830 x 844 km, 71.0° (Epoch: 15 February)

Event Time Altitude Azimuth Distance (km) Brightness Sun altitude
Rises 16:55:30 0° 335° (NNW) 3,408 5.9 -8.7°
Reaches altitude 10° 16:58:12 10° 345° (NNW) 2,471 5.1 -9.1°
Maximum altitude 17:03:19 34° 49° (NE) 1,371 3.3 -9.9°
Drops below altitude 10° 17:08:25 10° 113° (ESE) 2,463 4.7 -10.7°
Sets 17:11:05 0° 123° (ESE) 3,394 5.5 -11.1°
